User: anonymous   Login
Location: Unspecified
(0.0000°N, 0.0000°E)
Time: 20:09:36
(UTC+00:00)
Language:

STARS-ME - Orbit

View from above orbital plane
View from above orbital plane
View from above satellite
View from above satellite

Ground track
Ground track

The orbit data is extracted from the following two-line orbital elements,

1 43640U 98067PQ  21019.96420598  .00035760  00000-0  22746-3 0  9998
2 43640  51.6308 283.6183 0005054 134.4845 225.6569 15.76079075130732
Epoch (UTC): 19 January 2021 23:08:27
Eccentricity: 0.0005054
inclination: 51.6308°
perigee height: 338 km
apogee height: 345 km
right ascension of ascending node: 283.6183°
argument of perigee: 134.4845°
revolutions per day: 15.76079075
mean anomaly at epoch: 225.6569°
orbit number at epoch: 13073

The dashed part of the orbit path shows where the satellite is in the earth's shadow,  

DLR